Regional Weather Roundup
Issued by NWS State College, PA

Home | Current Version | Previous Version | Text Only | Print | Product List | Glossary On
Versions: 1 2 3 4 5 6 7 8 9 10 11 12 13 14 15 16 17 18 19 20 21 22 23 24 25 26 27 28 29 30 31 32 33 34 35 36 37 38 39 40 41 42 43 44 45 46 47 48 49 50
000
ASUS41 KCTP 040210
RWRCTP

REGIONAL WEATHER ROUNDUP
NATIONAL WEATHER SERVICE STATE COLLEGE PA
900 PM EST SAT DEC 03 2016

Note: "fair" indicates few or no clouds below 12,000 feet with no
significant weather and/or obstructions to visibility.

* = STATION THAT DOES NOT REPORT PRECIPITATION /E.G. RAIN...SNOW...ETC/
    THUNDER OR FOG.

PAZ002>004-007>009-013>016-020>023-029>032-040300-
WESTERN PENNSYLVANIA

CITY           SKY/WX    TMP DP  RH WIND       PRES   REMARKS
ERIE           CLOUDY    43  27  53 NW6       30.25S
MEADVILLE      CLOUDY    34  31  88 W10       30.23F
FRANKLIN*        N/A     34  28  80 W9        30.24F
NEW CASTLE     CLOUDY    36  29  75 SW3       30.29R
BEAVER COUNTY  NOT AVBL
BUTLER*        CLOUDY    36  28  75 W8        30.30R
PITTSBURGH INT CLOUDY    37  28  70 W5        30.28R
PITTSBURGH     CLOUDY    35  25  66 W8        30.27R
INDIANA*       CLOUDY    36  30  80 W9        30.27S
LATROBE        CLOUDY    36  28  75 SW9       30.29R
WASHINGTON CO* CLOUDY    36  25  64 SW9       30.29S
$$

PAZ004>006-010>012-017>019-024>028-033>037-041-042-045-046-049>053-040300-
CENTRAL PENNSYLVANIA

CITY           SKY/WX    TMP DP  RH WIND       PRES   REMARKS
BRADFORD       MIX PCPN  33  31  92 NW12      30.17R
DUBOIS         CLOUDY    34  30  85 W12       30.19F
CLEARFIELD     CLOUDY    37  32  82 W7        30.20S
JOHNSTOWN      CLOUDY    31  28  89 W10       30.20R
ALTOONA        CLOUDY    37  29  72 NW6       30.23R
STATE COLLEGE  CLOUDY    37  32  81 NW12G18   30.20R
WILLIAMSPORT   CLOUDY    42  30  62 W9        30.19R
SELINSGROVE    CLOUDY    42  34  73 NW6       30.20S
FT INDIANTOWN  CLOUDY    43  31  64 VRB5      30.18R
CAPITAL CITY   CLOUDY    45  27  49 W8        30.20R
HARRISBURG     MOCLDY    45  30  55 NW12      30.19S
YORK           CLOUDY    43  30  60 NW12      30.20S
$$

PAZ038>040-043-044-047-048-054-055-060>062-067>071-040300-
EASTERN PENNSYLVANIA

CITY           SKY/WX    TMP DP  RH WIND       PRES   REMARKS
SCRANTON       CLOUDY    39  28  64 N16       30.14S
MOUNT POCONO   CLOUDY    34  24  67 N14G23    30.06S
ALLENTOWN      CLOUDY    44  27  51 NW18G32   30.15R
QUAKERTOWN*    CLOUDY    43  28  56 N6        30.15R
READING        CLOUDY    44  31  60 NW9       30.16S
LANCASTER      CLOUDY    44  32  62 NW13      30.18R
COATESVILLE    CLOUDY    43  32  65 NW10G16   30.18S
POTTSTOWN      CLOUDY    42  31  64 W6        30.17S
BLUE BELL      CLOUDY    43  32  65 W3        30.16R
DOYLESTOWN     CLOUDY    45  29  53 NW7       30.14R
WILLOW GROVE   NOT AVBL
NORTH PHILA    CLOUDY    47  28  47 N15       30.17S
PHILADELPHIA   CLOUDY    47  30  51 W8        30.18S
$$




USA.gov is the U.S. government's official web portal to all federal, state and local government web resources and services.